Stations météo

réclame
Mon MeteoGroup
Europlatform, Pays-Bas (6321): Température de l'air & dewpoint: 13.11.2019 22:00:00 - 19.11.2019 22:00:00 (CET)Europlatform, Pays-Bas (6321): water temperature: 13.11.2019 22:00:00 - 19.11.2019 22:00:00 (CET)Europlatform, Pays-Bas (6321): Vitesse du vent & gusts: 13.11.2019 22:00:00 - 19.11.2019 22:00:00 (CET)Europlatform, Pays-Bas (6321): Direction du vent: 13.11.2019 22:00:00 - 19.11.2019 22:00:00 (CET)Europlatform, Pays-Bas (6321): reduced air pressure: 13.11.2019 22:00:00 - 19.11.2019 22:00:00 (CET)Europlatform, Pays-Bas (6321): visibility: 13.11.2019 22:00:00 - 19.11.2019 22:00:00 (CET)
Date & Time tt [°C] td [°C] tw [°C] ff [km/h] ff [knt] fx [km/h] fx [knt] dd ppp [hPa] vv [km]
19.11.2019 22:00:00 7,7 0,2 10,0 16 9 22 12 S 1018,5 10
19.11.2019 21:00:00 7,5 0,1 10,0 15 8 18 10 S 1018,5 10
19.11.2019 20:00:00 7,4 0,2 10,0 11 6 14 8 SSW 1018,1 10
19.11.2019 19:00:00 7,4 -0,1 10,0 8 4 14 8 S 1018,0 10
19.11.2019 18:00:00 7,4 0,5 10,0 11 6 18 10 WSW 1017,9 10
19.11.2019 17:00:00 7,4 0,6 10,0 15 8 22 12 WSW 1017,6 10
19.11.2019 16:00:00 7,8 0,2 10,0 16 9 25 14 WSW 1017,4 10
19.11.2019 15:00:00 8,3 0,5 10,0 21 11 29 16 W 1017,1 10
19.11.2019 14:00:00 8,3 0,9 10,0 24 13 29 16 W 1017,0 10
19.11.2019 13:00:00 9,8 1,6 10,0 26 14 32 18 W 1017,1 10
19.11.2019 12:00:00 8,4 1,5 10,0 24 13 32 18 W 1017,0 10
19.11.2019 11:00:00 8,2 2,6 10,0 28 15 32 18 W 1016,6 10
19.11.2019 10:00:00 8,1 3,3 10,0 34 18 36 19 W 1016,1 10
19.11.2019 09:00:00 8,0 3,5 10,0 31 17 40 21 W 1015,7 10
19.11.2019 08:00:00 7,8 3,7 9,9 9 5 40 21 NW 1015,3 10
19.11.2019 07:00:00 6,2 2,6 10,0 35 19 47 25 W 1015,1 10
19.11.2019 06:00:00 7,6 3,0 10,0 42 23 47 25 W 1014,5 10
19.11.2019 05:00:00 8,2 3,5 10,0 42 23 50 27 WNW 1014,2 10
19.11.2019 04:00:00 7,8 -13,6 10,0 42 23 54 29 WNW 1013,8 6
19.11.2019 03:00:00 8,9 1,6 10,0 42 23 54 29 WNW 1013,7 10
19.11.2019 02:00:00 8,6 2,9 10,0 41 22 50 27 NW 1013,4 10
19.11.2019 01:00:00 8,9 2,0 10,0 41 22 50 27 WNW 1013,3 10
19.11.2019 00:00:00 9,0 2,2 10,1 48 26 61 33 NW 1013,1 10
18.11.2019 23:00:00 9,0 0,8 10,0 44 24 61 33 WNW 1012,8 10
18.11.2019 22:00:00 8,3 2,6 10,0 52 28 61 33 NW 1012,7 10
18.11.2019 21:00:00 8,9 2,4 10,0 50 27 58 31 NW 1012,1 10
18.11.2019 20:00:00 9,5 0,9 10,0 54 29 58 31 NW 1011,7 10
18.11.2019 19:00:00 9,5 3,7 10,0 46 25 61 33 NNW 1011,4 10
18.11.2019 18:00:00 10,1 4,5 10,0 54 29 61 33 NNW 1011,1 10
18.11.2019 17:00:00 9,6 5,5 10,0 54 29 61 33 NNW 1010,9 10
18.11.2019 16:00:00 10,1 4,5 10,0 54 29 58 31 NNW 1010,4 10
18.11.2019 15:00:00 10,1 4,1 10,0 57 31 65 35 NNW 1010,0 10
18.11.2019 14:00:00 10,1 5,5 10,0 61 33 65 35 NNW 1009,4 10
18.11.2019 13:00:00 10,3 5,9 10,0 55 30 61 33 NNW 1009,1 10
18.11.2019 12:00:00 10,4 7,1 10,0 57 31 61 33 NNW 1009,3 10
18.11.2019 11:00:00 9,8 5,9 10,0 46 25 50 27 NNW 1009,7 10
18.11.2019 10:00:00 9,5 7,3 10,1 16 9 22 12 W 1009,9 10
18.11.2019 09:00:00 9,0 6,4 10,0 11 6 18 10 SW 1010,2 10
18.11.2019 08:00:00 8,5 5,3 10,0 15 8 18 10 SSW 1009,8 10
18.11.2019 07:00:00 7,9 4,2 10,0 15 8 18 10 S 1009,5 10
18.11.2019 06:00:00 8,1 4,4 10,0 16 9 18 10 SE 1009,7 10
18.11.2019 05:00:00 8,6 4,6 10,1 13 7 18 10 E 1009,5 10
18.11.2019 04:00:00 8,6 5,6 10,0 13 7 25 14 ENE 1009,6 8
18.11.2019 03:00:00 9,5 5,5 10,0 22 12 25 14 NE 1009,6 10
18.11.2019 02:00:00 10,0 5,4 10,0 22 12 29 16 N 1009,8 10
18.11.2019 01:00:00 9,8 5,6 10,0 28 15 32 18 NNE 1010,0 10
18.11.2019 00:00:00 9,7 4,5 10,0 29 16 32 18 NNE 1010,4 10
17.11.2019 23:00:00 9,5 5,2 10,0 24 13 29 16 N 1010,8 10
17.11.2019 22:00:00 9,3 4,6 10,0 24 13 29 16 NNE 1011,3 10
17.11.2019 21:00:00 9,0 4,3 10,0 24 13 25 14 NNE 1011,8 10
17.11.2019 20:00:00 8,8 4,3 10,0 15 8 22 12 N 1011,4 10
17.11.2019 19:00:00 8,4 3,5 10,0 11 6 14 8 NE 1011,6 10
17.11.2019 18:00:00 8,1 2,4 10,0 11 6 14 8 NE 1011,9 10
17.11.2019 17:00:00 8,2 3,2 10,0 8 4 11 6 NNE 1011,5 10
17.11.2019 16:00:00 8,2 3,2 10,0 9 5 14 8 ENE 1011,8 10
17.11.2019 15:00:00 8,3 3,3 10,0 5 3 11 6 NE 1011,6 10
17.11.2019 14:00:00 8,3 3,2 10,0 2 1 11 6 - 1011,3 10
17.11.2019 13:00:00 8,2 3,4 10,0 9 5 11 6 ESE 1011,3 10
17.11.2019 12:00:00 8,5 3,9 10,0 9 5 18 10 SSE 1011,5 10
17.11.2019 11:00:00 8,6 4,1 10,0 13 7 22 12 SSE 1011,9 10
17.11.2019 10:00:00 8,0 4,2 10,0 21 11 25 14 SSE 1011,9 10
17.11.2019 09:00:00 8,4 3,2 10,0 16 9 22 12 S 1011,7 10
17.11.2019 08:00:00 8,2 3,1 10,0 16 9 22 12 S 1011,1 10
17.11.2019 07:00:00 8,1 3,5 10,0 21 11 29 16 S 1010,3 10
17.11.2019 06:00:00 8,2 3,2 10,0 26 14 29 16 S 1010,2 10
17.11.2019 05:00:00 8,2 3,5 10,0 28 15 32 18 S 1010,1 10
17.11.2019 04:00:00 8,2 3,5 10,0 31 17 36 19 S 1009,8 10
17.11.2019 03:00:00 8,5 3,7 10,0 31 17 36 19 S 1009,9 10
17.11.2019 02:00:00 8,5 4,0 10,0 35 19 40 21 S 1009,8 10
17.11.2019 01:00:00 8,4 4,1 10,0 35 19 36 19 S 1009,5 10
17.11.2019 00:00:00 8,1 4,4 10,0 35 19 40 21 S 1009,4 10
16.11.2019 23:00:00 8,3 4,1 10,0 35 19 43 23 S 1009,3 10
16.11.2019 22:00:00 8,2 4,8 10,0 41 22 43 23 S 1009,0 10
16.11.2019 21:00:00 8,7 5,2 10,0 34 18 36 19 S 1008,9 10
16.11.2019 20:00:00 8,3 4,4 10,0 29 16 32 18 S 1008,5 10
16.11.2019 19:00:00 8,2 4,0 10,0 28 15 32 18 S 1008,3 10
16.11.2019 18:00:00 8,3 1,9 10,0 28 15 32 18 SSW 1008,2 10
16.11.2019 17:00:00 8,0 1,9 10,0 28 15 32 18 SSW 1007,7 10
16.11.2019 16:00:00 7,9 2,1 10,0 26 14 29 16 S 1007,4 10
16.11.2019 15:00:00 7,9 1,4 10,0 26 14 29 16 S 1006,9 10
16.11.2019 14:00:00 7,7 1,9 10,0 21 11 25 14 S 1007,0 10
16.11.2019 13:00:00 7,3 2,1 10,0 24 13 29 16 S 1007,2 10
16.11.2019 12:00:00 7,6 2,3 10,0 24 13 29 16 S 1007,2 10
16.11.2019 11:00:00 7,5 2,4 10,0 18 10 25 14 SSE 1007,1 10
16.11.2019 10:00:00 7,5 2,1 10,0 18 10 29 16 S 1006,8 10
16.11.2019 09:00:00 7,5 2,7 10,0 13 7 18 10 S 1006,7 10
16.11.2019 08:00:00 7,3 2,2 10,0 15 8 22 12 SSE 1006,2 10
16.11.2019 07:00:00 7,4 2,1 10,0 16 9 22 12 SSE 1005,6 10
16.11.2019 06:00:00 7,5 1,4 10,0 16 9 22 12 SE 1005,3 10
16.11.2019 05:00:00 7,5 2,1 10,0 18 10 29 16 SE 1005,2 10
16.11.2019 04:00:00 7,4 2,2 10,0 24 13 29 16 SE 1004,9 10
16.11.2019 03:00:00 7,5 2,3 10,0 18 10 25 14 SE 1005,0 10
16.11.2019 02:00:00 7,4 2,3 10,0 18 10 29 16 ESE 1004,7 10
16.11.2019 01:00:00 7,4 1,6 10,0 16 9 25 14 ESE 1004,6 10
16.11.2019 00:00:00 7,0 1,6 10,0 22 12 32 18 SE 1004,1 10
15.11.2019 23:00:00 7,3 2,0 10,0 28 15 32 18 ESE 1004,0 10
15.11.2019 22:00:00 7,2 1,7 10,0 22 12 29 16 SE 1003,5 10
15.11.2019 21:00:00 7,3 2,3 10,0 29 16 36 19 ESE 1002,9 10
15.11.2019 20:00:00 7,3 3,4 10,0 29 16 32 18 ESE 1002,3 10
15.11.2019 19:00:00 6,9 2,6 10,0 29 16 36 19 E 1001,5 10
15.11.2019 18:00:00 6,9 2,8 10,0 35 19 40 21 E 1000,9 10
15.11.2019 17:00:00 6,9 3,2 10,0 31 17 43 23 ENE 1000,6 10
15.11.2019 16:00:00 6,3 2,1 10,0 41 22 54 29 ENE 1000,5 10
15.11.2019 15:00:00 6,7 2,6 10,0 50 27 54 29 NNE 1000,5 10
15.11.2019 14:00:00 6,7 2,5 10,0 46 25 54 29 NNE 1000,0 10
15.11.2019 13:00:00 6,5 2,3 11,0 44 24 50 27 NNE 1000,7 10
15.11.2019 12:00:00 5,9 2,3 11,0 35 19 47 25 NE 1001,3 10
15.11.2019 11:00:00 5,9 2,5 11,0 39 21 50 27 NE 1002,7 10
15.11.2019 10:00:00 6,1 3,3 11,0 46 25 61 33 NE 1001,9 10
15.11.2019 09:00:00 6,7 4,0 11,0 52 28 58 31 NE 1001,4 10
15.11.2019 08:00:00 6,9 3,9 11,0 48 26 50 27 NNE 1000,6 10
15.11.2019 07:00:00 7,9 3,9 11,0 39 21 43 23 NNE 1000,8 10
15.11.2019 06:00:00 8,3 5,2 11,0 39 21 43 23 NE 1001,6 10
15.11.2019 05:00:00 8,7 4,1 11,0 39 21 40 21 NNE 1001,7 10
15.11.2019 04:00:00 9,0 5,5 11,0 35 19 40 21 NNE 1001,9 10
15.11.2019 03:00:00 9,0 4,5 11,0 28 15 32 18 NNE 1002,7 10
15.11.2019 02:00:00 8,8 4,1 11,0 22 12 25 14 NNE 1003,1 10
15.11.2019 01:00:00 8,7 3,4 11,0 16 9 22 12 NE 1003,9 10
15.11.2019 00:00:00 8,2 3,1 11,0 11 6 14 8 NE 1003,8 10
14.11.2019 23:00:00 7,9 1,4 11,0 16 9 32 18 E 1003,7 10
14.11.2019 22:00:00 8,0 2,7 11,0 22 12 29 16 E 1003,4 10
14.11.2019 21:00:00 7,9 2,8 11,0 18 10 25 14 E 1003,5 10
14.11.2019 20:00:00 8,0 2,0 11,0 21 11 25 14 ESE 1003,4 10
14.11.2019 19:00:00 7,9 2,3 11,0 26 14 29 16 SE 1002,5 10
14.11.2019 18:00:00 7,8 3,3 11,0 26 14 32 18 SE 1001,9 10
14.11.2019 17:00:00 8,0 3,5 11,0 31 17 36 19 SE 1001,3 10
14.11.2019 16:00:00 7,7 2,5 11,0 31 17 36 19 SE 1000,4 10
14.11.2019 15:00:00 7,5 3,5 11,0 29 16 40 21 SE 999,8 10
14.11.2019 14:00:00 7,3 3,6 11,0 34 18 40 21 SE 999,2 10
14.11.2019 13:00:00 6,9 3,4 11,0 41 22 47 25 SE 998,9 10
14.11.2019 12:00:00 6,8 3,5 11,0 46 25 50 27 SSE 998,6 10
14.11.2019 11:00:00 6,9 3,9 10,7 50 27 58 31 SE 997,9 10
14.11.2019 10:00:00 7,3 3,8 11,0 54 29 61 33 SE 996,9 10
14.11.2019 09:00:00 7,9 4,8 11,0 55 30 65 35 ESE 996,4 10
14.11.2019 08:00:00 7,7 3,9 11,0 57 31 61 33 ESE 995,9 10
14.11.2019 07:00:00 7,9 3,7 11,0 54 29 61 33 ESE 995,1 10
14.11.2019 06:00:00 8,0 4,6 11,0 50 27 54 29 ESE 994,9 10
14.11.2019 05:00:00 8,2 5,7 11,0 52 28 54 29 ESE 994,8 10
14.11.2019 04:00:00 8,2 5,0 11,0 46 25 47 25 SE 995,0 10
14.11.2019 03:00:00 8,3 5,9 11,0 44 24 47 25 SE 995,5 10
14.11.2019 02:00:00 8,0 5,3 11,0 41 22 47 25 SSE 995,8 10
14.11.2019 01:00:00 8,3 5,4 11,0 39 21 47 25 SSE 996,2 10
14.11.2019 00:00:00 8,5 5,3 11,0 41 22 47 25 SSE 996,4 10
13.11.2019 23:00:00 8,8 5,5 11,0 39 21 43 23 SSE 996,6 10
13.11.2019 22:00:00 8,5 5,1 11,0 37 20 43 23 SSE 997,2 10

tt = Température de l'air
td = dewpoint
tw = water temperature
ff = Vitesse du vent
fx = gusts
dd = Direction du vent
ppp = reduced air pressure
vv = visibility

stations d'obs. à proximité